Location: Unspecified
(35.6961°N, 0.0000°E)
Time: 01:03:31
(UTC+00:00)

Explorer 11/Cluster Stage 4 - Pass Details

Date: 27 May 2019
Orbit: 467 x 1260 km, 28.8° (Epoch: 14 June)

Event Time Altitude Azimuth Distance (km) Brightness Sun altitude
Rises 02:52:03 0° 252° (WSW) 3,583 - -19.6°
Reaches altitude 10° 02:55:06 10° 245° (WSW) 2,494 - -19.2°
Exits shadow 02:59:18 34° 208° (SSW) 1,241 7.1 -18.6°
Maximum altitude 03:00:28 38° 179° (S) 1,107 7.0 -18.4°
Drops below altitude 10° 03:04:51 10° 111° (ESE) 2,014 9.0 -17.8°
Sets 03:07:04 0° 102° (ESE) 2,816 9.9 -17.5°
